| time (UTC) | temp F | wind direction | speed MPH | gust MPH | rain 1hr in | rain 24hr in | rain mn in | humidity % | barometer mb |
| 20260504234227 | 67 | 219 | 2.0 | 3.0 | 0.00 | 0.00 | 0.00 | 39 | 1005.4 |
| 20260504233724 | 68 | 162 | 1.0 | 1.0 | 0.00 | 0.00 | 0.00 | 39 | 1005.3 |
| 20260504233219 | 68 | 190 | 4.0 | 6.0 | 0.00 | 0.00 | 0.00 | 37 | 1005.1 |
| 20260504232717 | 69 | 136 | 2.0 | 2.0 | 0.00 | 0.00 | 0.00 | 38 | 1005.2 |
| 20260504232214 | 69 | 170 | 0.0 | 0.0 | 0.00 | 0.00 | 0.00 | 37 | 1005.0 |
| 20260504231710 | 70 | 184 | 2.0 | 4.0 | 0.00 | 0.00 | 0.00 | 36 | 1005.2 |
| 20260504231207 | 70 | 195 | 3.0 | 3.0 | 0.00 | 0.00 | 0.00 | 36 | 1005.2 |
| 20260504230703 | 70 | 173 | 2.0 | 2.0 | 0.00 | 0.00 | 0.00 | 35 | 1005.3 |
| 20260504230202 | 71 | 226 | 2.0 | 2.0 | 0.00 | 0.00 | 0.00 | 34 | 1005.2 |
| 20260504225700 | 71 | 159 | 1.0 | 2.0 | 0.00 | 0.00 | 0.00 | 32 | 1005.0 |
| 20260504225155 | 71 | 190 | 2.0 | 3.0 | 0.00 | 0.00 | 0.00 | 34 | 1005.2 |
| 20260504224653 | 71 | 237 | 4.0 | 4.0 | 0.00 | 0.00 | 0.00 | 33 | 1005.2 |
| 20260504224150 | 71 | 216 | 3.0 | 4.0 | 0.00 | 0.00 | 0.00 | 33 | 1005.2 |
| 20260504223647 | 71 | 196 | 2.0 | 2.0 | 0.00 | 0.00 | 0.00 | 34 | 1005.1 |
| 20260504223142 | 71 | 237 | 3.0 | 3.0 | 0.00 | 0.00 | 0.00 | 34 | 1005.2 |
| 20260504222640 | 71 | 269 | 3.0 | 6.0 | 0.00 | 0.00 | 0.00 | 32 | 1005.2 |
| 20260504222136 | 71 | 271 | 6.0 | 10.0 | 0.00 | 0.00 | 0.00 | 32 | 1005.1 |
| 20260504221634 | 71 | 165 | 3.0 | 3.0 | 0.00 | 0.00 | 0.00 | 33 | 1005.3 |
| 20260504221131 | 71 | 209 | 4.0 | 6.0 | 0.00 | 0.00 | 0.00 | 33 | 1005.2 |
| 20260504220627 | 71 | 173 | 2.0 | 2.0 | 0.00 | 0.00 | 0.00 | 35 | 1005.2 |
| 20260504220125 | 72 | 228 | 4.0 | 4.0 | 0.00 | 0.00 | 0.00 | 31 | 1005.4 |
| 20260504215621 | 71 | 182 | 0.0 | 0.0 | 0.00 | 0.00 | 0.00 | 36 | 1005.2 |
| 20260504215118 | 72 | 214 | 3.0 | 3.0 | 0.00 | 0.00 | 0.00 | 33 | 1005.1 |
| 20260504214614 | 72 | 155 | 7.0 | 9.0 | 0.00 | 0.00 | 0.00 | 31 | 1005.1 |
| 20260504214110 | 72 | 206 | 2.0 | 3.0 | 0.00 | 0.00 | 0.00 | 34 | 1005.2 |
| 20260504213607 | 72 | 242 | 6.0 | 9.0 | 0.00 | 0.00 | 0.00 | 32 | 1005.2 |
| 20260504213104 | 72 | 244 | 6.0 | 7.0 | 0.00 | 0.00 | 0.00 | 32 | 1005.2 |
| 20260504212600 | 71 | 185 | 2.0 | 3.0 | 0.00 | 0.00 | 0.00 | 33 | 1005.1 |
| 20260504212057 | 69 | 174 | 5.0 | 9.0 | 0.00 | 0.00 | 0.00 | 35 | 1005.2 |
| 20260504211554 | 70 | 147 | 2.0 | 2.0 | 0.00 | 0.00 | 0.00 | 37 | 1005.1 |
| 20260504211051 | 71 | 202 | 5.0 | 6.0 | 0.00 | 0.00 | 0.00 | 34 | 1005.4 |
| 20260504210549 | 71 | 124 | 1.0 | 1.0 | 0.00 | 0.00 | 0.00 | 35 | 1005.5 |
| 20260504210045 | 71 | 169 | 0.0 | 1.0 | 0.00 | 0.00 | 0.00 | 36 | 1005.4 |
| 20260504205543 | 72 | 216 | 3.0 | 4.0 | 0.00 | 0.00 | 0.00 | 35 | 1005.5 |
| 20260504205041 | 72 | 202 | 2.0 | 2.0 | 0.00 | 0.00 | 0.00 | 36 | 1005.5 |
| 20260504204538 | 72 | 239 | 5.0 | 7.0 | 0.00 | 0.00 | 0.00 | 35 | 1005.5 |
| 20260504204037 | 71 | 217 | 6.0 | 9.0 | 0.00 | 0.00 | 0.00 | 35 | 1005.4 |
| 20260504203535 | 70 | 164 | 1.0 | 2.0 | 0.00 | 0.00 | 0.00 | 41 | 1005.5 |
| 20260504203032 | 69 | 188 | 2.0 | 2.0 | 0.00 | 0.00 | 0.00 | 38 | 1005.7 |
| 20260504202527 | 70 | 138 | 7.0 | 10.0 | 0.00 | 0.00 | 0.00 | 36 | 1005.8 |
| 20260504202025 | 71 | 164 | 1.0 | 2.0 | 0.00 | 0.00 | 0.00 | 37 | 1005.7 |
| 20260504201521 | 70 | 127 | 3.0 | 4.0 | 0.00 | 0.00 | 0.00 | 39 | 1005.9 |
| 20260504201019 | 71 | 211 | 2.0 | 2.0 | 0.00 | 0.00 | 0.00 | 37 | 1005.8 |
| 20260504200515 | 71 | 236 | 3.0 | 4.0 | 0.00 | 0.00 | 0.00 | 34 | 1006.1 |
| 20260504200012 | 72 | 237 | 4.0 | 4.0 | 0.00 | 0.00 | 0.00 | 33 | 1006.1 |
| 20260504195508 | 71 | 258 | 7.0 | 10.0 | 0.00 | 0.00 | 0.00 | 34 | 1006.0 |
| 20260504195005 | 70 | 236 | 4.0 | 7.0 | 0.00 | 0.00 | 0.00 | 37 | 1006.2 |
| 20260504194501 | 69 | 194 | 2.0 | 3.0 | 0.00 | 0.00 | 0.00 | 38 | 1006.2 |
| 20260504193957 | 69 | 226 | 2.0 | 3.0 | 0.00 | 0.00 | 0.00 | 38 | 1006.2 |
| 20260504193454 | 68 | 186 | 3.0 | 4.0 | 0.00 | 0.00 | 0.00 | 37 | 1006.4 |
| 20260504192953 | 69 | 259 | 8.0 | 8.0 | 0.00 | 0.00 | 0.00 | 36 | 1006.4 |
| 20260504192450 | 69 | 221 | 3.0 | 3.0 | 0.00 | 0.00 | 0.00 | 38 | 1006.7 |
| 20260504191949 | 71 | 300 | 6.0 | 8.0 | 0.00 | 0.00 | 0.00 | 34 | 1006.4 |
| 20260504191446 | 69 | 271 | 6.0 | 8.0 | 0.00 | 0.00 | 0.00 | 37 | 1006.7 |
| 20260504190941 | 69 | 265 | 4.0 | 4.0 | 0.00 | 0.00 | 0.00 | 39 | 1006.5 |
| 20260504190437 | 70 | 240 | 6.0 | 7.0 | 0.00 | 0.00 | 0.00 | 38 | 1006.7 |
| 20260504185934 | 70 | 213 | 5.0 | 6.0 | 0.00 | 0.00 | 0.00 | 38 | 1006.8 |
| 20260504185432 | 71 | 91 | 3.0 | 4.0 | 0.00 | 0.00 | 0.00 | 39 | 1006.7 |
| 20260504184927 | 70 | 171 | 4.0 | 6.0 | 0.00 | 0.00 | 0.00 | 38 | 1006.9 |
| 20260504184423 | 70 | 317 | 5.0 | 8.0 | 0.00 | 0.00 | 0.00 | 39 | 1006.5 |
| 20260504183919 | 70 | 234 | 6.0 | 8.0 | 0.00 | 0.00 | 0.00 | 37 | 1006.7 |
| 20260504183417 | 70 | 181 | 3.0 | 7.0 | 0.00 | 0.00 | 0.00 | 37 | 1007.0 |
| 20260504182915 | 69 | 201 | 4.0 | 7.0 | 0.00 | 0.00 | 0.00 | 38 | 1006.8 |
| 20260504182411 | 68 | 142 | 4.0 | 7.0 | 0.00 | 0.00 | 0.00 | 38 | 1006.9 |
| 20260504181908 | 67 | 151 | 0.0 | 1.0 | 0.00 | 0.00 | 0.00 | 41 | 1006.8 |
| 20260504181406 | 67 | 244 | 4.0 | 6.0 | 0.00 | 0.00 | 0.00 | 43 | 1006.9 |
| 20260504180904 | 66 | 289 | 2.0 | 3.0 | 0.00 | 0.00 | 0.00 | 40 | 1007.1 |
| 20260504180403 | 67 | 249 | 4.0 | 6.0 | 0.00 | 0.00 | 0.00 | 41 | 1007.2 |
| 20260504175900 | 66 | 172 | 3.0 | 6.0 | 0.00 | 0.00 | 0.00 | 45 | 1006.9 |
| 20260504175357 | 66 | 243 | 7.0 | 8.0 | 0.00 | 0.00 | 0.00 | 39 | 1007.1 |
| 20260504174855 | 65 | 195 | 6.0 | 8.0 | 0.00 | 0.00 | 0.00 | 43 | 1007.2 |
| 20260504174352 | 65 | 132 | 2.0 | 3.0 | 0.00 | 0.00 | 0.00 | 43 | 1007.0 |
| 20260504173849 | 66 | 234 | 6.0 | 9.0 | 0.00 | 0.00 | 0.00 | 40 | 1007.2 |
| 20260504173345 | 66 | 191 | 5.0 | 6.0 | 0.00 | 0.00 | 0.00 | 40 | 1007.1 |
| 20260504172843 | 65 | 233 | 4.0 | 4.0 | 0.00 | 0.00 | 0.00 | 41 | 1007.2 |
| 20260504172339 | 66 | 195 | 2.0 | 6.0 | 0.00 | 0.00 | 0.00 | 44 | 1007.1 |
| 20260504171835 | 67 | 72 | 3.0 | 4.0 | 0.00 | 0.00 | 0.00 | 43 | 1007.4 |
| 20260504171332 | 66 | 208 | 8.0 | 10.0 | 0.00 | 0.00 | 0.00 | 40 | 1007.3 |
| 20260504170830 | 65 | 221 | 6.0 | 7.0 | 0.00 | 0.00 | 0.00 | 42 | 1007.4 |
| 20260504170326 | 65 | 134 | 5.0 | 7.0 | 0.00 | 0.00 | 0.00 | 41 | 1007.6 |
| 20260504160245 | 65 | 208 | 9.0 | 11.0 | 0.00 | 0.00 | 0.00 | 42 | 1008.2 |
| 20260504150710 | 61 | 259 | 8.0 | 9.0 | 0.00 | 0.00 | 0.00 | 44 | 1008.5 |
| 20260504150207 | 61 | 231 | 6.0 | 8.0 | 0.00 | 0.00 | 0.00 | 42 | 1008.8 |
| 20260504141136 | 57 | 137 | 2.0 | 3.0 | 0.00 | 0.00 | 0.00 | 49 | 1008.8 |
| 20260504140633 | 58 | 233 | 8.0 | 10.0 | 0.00 | 0.00 | 0.00 | 44 | 1008.8 |
| 20260504140128 | 57 | 318 | 3.0 | 6.0 | 0.00 | 0.00 | 0.00 | 49 | 1009.1 |
| 20260504130556 | 50 | 109 | 3.0 | 4.0 | 0.00 | 0.00 | 0.00 | 57 | 1009.7 |
| 20260504110444 | 44 | 117 | 2.0 | 4.0 | 0.00 | 0.00 | 0.00 | 64 | 1009.9 |
| 20260504100406 | 38 | 159 | 1.0 | 1.0 | 0.00 | 0.00 | 0.00 | 75 | 1009.7 |
| 20260504081800 | 41 | 124 | 0.0 | 0.0 | 0.00 | 0.00 | 0.00 | 67 | 1009.7 |
| 20260504081256 | 41 | 140 | 1.0 | 1.0 | 0.00 | 0.00 | 0.00 | 67 | 1009.9 |
| 20260504080753 | 41 | 128 | 1.0 | 1.0 | 0.00 | 0.00 | 0.00 | 67 | 1010.0 |
| 20260504080249 | 41 | 136 | 1.0 | 1.0 | 0.00 | 0.00 | 0.00 | 69 | 1009.8 |
| 20260504070217 | 42 | 136 | 1.0 | 1.0 | 0.00 | 0.00 | 0.00 | 65 | 1010.0 |
| 20260504060137 | 44 | 133 | 1.0 | 1.0 | 0.00 | 0.00 | 0.00 | 61 | 1010.1 |
| 20260504050606 | 45 | 113 | 0.0 | 1.0 | 0.00 | 0.00 | 0.00 | 59 | 1010.1 |
| 20260504045559 | 44 | 133 | 1.0 | 2.0 | 0.00 | 0.00 | 0.00 | 62 | 1010.1 |
| 20260504045054 | 44 | 136 | 0.0 | 0.0 | 0.00 | 0.00 | 0.00 | 63 | 1010.0 |
| 20260504044552 | 44 | 136 | 0.0 | 0.0 | 0.00 | 0.00 | 0.00 | 63 | 1010.3 |
| 20260504044049 | 44 | 136 | 1.0 | 1.0 | 0.00 | 0.00 | 0.00 | 64 | 1010.2 |
| 20260504043546 | 45 | 136 | 0.0 | 0.0 | 0.00 | 0.00 | 0.00 | 62 | 1010.2 |
| 20260504043043 | 46 | 136 | 0.0 | 1.0 | 0.00 | 0.00 | 0.00 | 61 | 1010.2 |
| 20260504042540 | 46 | 136 | 1.0 | 2.0 | 0.00 | 0.00 | 0.00 | 62 | 1010.1 |
| 20260504042037 | 46 | 137 | 0.0 | 0.0 | 0.00 | 0.00 | 0.00 | 61 | 1010.3 |
| 20260504041533 | 47 | 136 | 0.0 | 0.0 | 0.00 | 0.00 | 0.00 | 60 | 1010.3 |
| 20260504041029 | 47 | 137 | 0.0 | 0.0 | 0.00 | 0.00 | 0.00 | 60 | 1010.1 |
| 20260504040527 | 48 | 137 | 0.0 | 0.0 | 0.00 | 0.00 | 0.00 | 58 | 1010.3 |
| 20260504040024 | 48 | 137 | 0.0 | 0.0 | 0.00 | 0.00 | 0.00 | 55 | 1010.2 |
| 20260504035521 | 48 | 137 | 0.0 | 1.0 | 0.00 | 0.00 | 0.00 | 57 | 1010.3 |
| 20260504035017 | 49 | 137 | 1.0 | 1.0 | 0.00 | 0.00 | 0.00 | 55 | 1010.3 |
| 20260504034515 | 49 | 145 | 2.0 | 2.0 | 0.00 | 0.00 | 0.00 | 56 | 1010.2 |
| 20260504034011 | 50 | 155 | 1.0 | 1.0 | 0.00 | 0.00 | 0.00 | 53 | 1010.1 |
| 20260504033509 | 50 | 171 | 1.0 | 1.0 | 0.00 | 0.00 | 0.00 | 50 | 1010.2 |
| 20260504033006 | 50 | 171 | 1.0 | 1.0 | 0.00 | 0.00 | 0.00 | 49 | 1010.2 |
| 20260504032503 | 50 | 235 | 0.0 | 0.0 | 0.00 | 0.00 | 0.00 | 49 | 1010.2 |
| 20260504032000 | 51 | 235 | 1.0 | 1.0 | 0.00 | 0.00 | 0.00 | 51 | 1010.5 |
| 20260504031456 | 51 | 235 | 1.0 | 2.0 | 0.00 | 0.00 | 0.00 | 48 | 1010.3 |
| 20260504030953 | 51 | 235 | 1.0 | 1.0 | 0.00 | 0.00 | 0.00 | 49 | 1010.3 |
| 20260504030451 | 52 | 191 | 1.0 | 1.0 | 0.00 | 0.00 | 0.00 | 49 | 1010.2 |
| 20260504025946 | 52 | 195 | 2.0 | 2.0 | 0.00 | 0.00 | 0.00 | 44 | 1010.4 |
| 20260504025443 | 51 | 213 | 2.0 | 2.0 | 0.00 | 0.00 | 0.00 | 45 | 1010.6 |
| 20260504024940 | 52 | 229 | 2.0 | 2.0 | 0.00 | 0.00 | 0.00 | 45 | 1010.4 |
| 20260504024437 | 52 | 288 | 4.0 | 4.0 | 0.00 | 0.00 | 0.00 | 45 | 1010.5 |
| 20260504023934 | 51 | 250 | 4.0 | 6.0 | 0.00 | 0.00 | 0.00 | 45 | 1010.8 |
| 20260504023431 | 51 | 277 | 3.0 | 4.0 | 0.00 | 0.00 | 0.00 | 47 | 1010.4 |
| 20260504022926 | 51 | 261 | 1.0 | 2.0 | 0.00 | 0.00 | 0.00 | 48 | 1010.8 |
| 20260504022423 | 51 | 341 | 3.0 | 3.0 | 0.00 | 0.00 | 0.00 | 49 | 1010.6 |
| 20260504021920 | 51 | 299 | 2.0 | 3.0 | 0.00 | 0.00 | 0.00 | 49 | 1010.8 |
| 20260504021417 | 51 | 272 | 4.0 | 4.0 | 0.00 | 0.00 | 0.00 | 48 | 1010.8 |
| 20260504020914 | 51 | 307 | 6.0 | 7.0 | 0.00 | 0.00 | 0.00 | 48 | 1010.9 |
| 20260504020411 | 51 | 327 | 3.0 | 4.0 | 0.00 | 0.00 | 0.00 | 48 | 1011.0 |
| 20260504015907 | 51 | 290 | 7.0 | 9.0 | 0.00 | 0.00 | 0.00 | 47 | 1010.7 |
| 20260504015403 | 52 | 294 | 4.0 | 6.0 | 0.00 | 0.00 | 0.00 | 47 | 1010.9 |
| 20260504014859 | 52 | 319 | 9.0 | 11.0 | 0.00 | 0.00 | 0.00 | 46 | 1011.0 |
| 20260504014355 | 51 | 275 | 4.0 | 8.0 | 0.00 | 0.00 | 0.00 | 47 | 1010.9 |
| 20260504013853 | 51 | 294 | 5.0 | 9.0 | 0.00 | 0.00 | 0.00 | 46 | 1010.7 |
| 20260504013351 | 51 | 334 | 2.0 | 3.0 | 0.00 | 0.00 | 0.00 | 48 | 1010.6 |
| 20260504012847 | 51 | 355 | 5.0 | 8.0 | 0.00 | 0.00 | 0.00 | 48 | 1010.7 |
| 20260504012345 | 51 | 285 | 2.0 | 2.0 | 0.00 | 0.00 | 0.00 | 48 | 1010.7 |
| 20260504011842 | 51 | 4 | 3.0 | 3.0 | 0.00 | 0.00 | 0.00 | 48 | 1010.6 |
| 20260504011339 | 51 | 302 | 3.0 | 4.0 | 0.00 | 0.00 | 0.00 | 48 | 1010.7 |
| 20260504010835 | 51 | 261 | 4.0 | 4.0 | 0.00 | 0.00 | 0.00 | 49 | 1010.9 |
| 20260504010330 | 50 | 280 | 9.0 | 13.0 | 0.00 | 0.00 | 0.00 | 49 | 1010.6 |
| 20260504005827 | 50 | 325 | 1.0 | 2.0 | 0.00 | 0.00 | 0.00 | 50 | 1010.5 |
| 20260504005324 | 51 | 20 | 0.0 | 1.0 | 0.00 | 0.00 | 0.00 | 50 | 1010.4 |
| 20260504004822 | 51 | 341 | 4.0 | 6.0 | 0.00 | 0.00 | 0.00 | 48 | 1010.4 |
| 20260504004319 | 51 | 1 | 2.0 | 2.0 | 0.00 | 0.00 | 0.00 | 49 | 1010.4 |
| 20260504003815 | 51 | 305 | 3.0 | 4.0 | 0.00 | 0.00 | 0.00 | 47 | 1010.4 |
| 20260504003312 | 52 | 307 | 4.0 | 7.0 | 0.00 | 0.00 | 0.00 | 47 | 1010.4 |
| 20260504002809 | 52 | 348 | 11.0 | 16.0 | 0.00 | 0.00 | 0.00 | 45 | 1010.2 |
| 20260504002306 | 52 | 328 | 9.0 | 10.0 | 0.00 | 0.00 | 0.00 | 46 | 1010.0 |
| 20260504001804 | 52 | 325 | 6.0 | 9.0 | 0.00 | 0.00 | 0.00 | 45 | 1010.2 |
| 20260504001300 | 51 | 337 | 5.0 | 7.0 | 0.00 | 0.00 | 0.00 | 46 | 1010.2 |
| 20260504000757 | 51 | 272 | 2.0 | 3.0 | 0.00 | 0.00 | 0.00 | 47 | 1010.2 |
| 20260504000254 | 50 | 149 | 0.0 | 0.0 | 0.00 | 0.00 | 0.00 | 49 | 1009.6 |
| 20260503235752 | 50 | 124 | 0.0 | 0.0 | 0.00 | 0.00 | 0.00 | 49 | 1009.8 |
| 20260503235249 | 50 | 129 | 0.0 | 1.0 | 0.00 | 0.00 | 0.00 | 51 | 1009.6 |
| 20260503234747 | 50 | 147 | 0.0 | 0.0 | 0.00 | 0.00 | 0.00 | 51 | 1009.8 |